TOURFACTS.DK  
Stats and Facts from Tour de France.

Tour de France 2018 starts in 13 days
  Riders   Stages   Teams   Summits   Yearly  


 
Search by year

After 2017 - Stage 21:
 14824 starters.
  5132 different riders.
  639 teams.
  2232 stages.
  456 restdays.
  439589.60 km.
  5653 abandonnees.


Top 3
GC
Christopher Froome86:20:55
Rigoberto Urán86:21:49
Romain Bardet86:23:15
Climb
Warren Barguil169 pt.
Primoz Roglic80 pt.
Thomas De Gendt64 pt.
Sprint
Michael Matthews359 pt.
André Greipel234 pt.
Edvald Boasson Hagen220 pt.
Youth
Simon Yates86:27:09
Louis Meintjes86:29:15
Emanuel Buchmann86:54:16
Facts from Tour de France 1975
  |   Stages.  |   Stage winners.  |   Days in yellow  |   Average speed.  |   Route.  |   Teams.  |   All riders.  |   Rookies.  |  

  |   Withdrawls.  |   GC.  |   Polka  |   Green  |   White  |   Summits. (In tour)  |   Miscellaneous.  |  

Stage 6 on 02 - 07 - 1975
         Owning:    Eddy Merckx    
Pick a stage:  Pro 1a 1b 2 3 4 5 6 7 8 9a 9b 10 11 12 13 14 15 16 17 18 19 20 21 22
  Merlin-PlageMerlin-Plage | Dist: 16.00 km.

Average speed for all riders in stage:  44,711 km./hr.
    Place:Name:Team:Time:Km/h:
BELEddy MerckxITAMolteni00:19:33  +  00:00:00=49,105 
FRAYves HézardFRAGan-Mercier-Hutchinson00:19:40  +  00:00:07=48,814 
NORKnut KnudsenITAJollyceramica00:20:03  +  00:00:30=47,880 
4 ITAFrancesco MoserITAFilotex00:20:06  +  00:00:33=47,761 
5 FRAJean-Pierre DanguillaumeFRAPeugeot-BP-Michelin00:20:18  +  00:00:45=47,291 
6 FRABernard ThevenetFRAPeugeot-BP-Michelin00:20:25  +  00:00:52=47,020 
7 ESPLuis OcañaESPSuper Ser00:20:26  +  00:00:53=46,982 
8 NEDHennie KuiperNLDFrisol-G.B.C.00:20:29  +  00:00:56=46,867 
9 BELMichel PollentierBELCarpenter Confortluxe-Flandria00:20:30  +  00:00:57=46,829 
10 NEDGerrie KnetemannFRAGan-Mercier-Hutchinson00:20:31  +  00:00:58=46,791 
11 DENOle RitterITAFilotex00:20:32  +  00:00:59=46,753 
12 ENGBarry HobanFRAGan-Mercier-Hutchinson00:20:38  +  00:01:05=46,527 
13 NEDCees PriemNLDFrisol-G.B.C.00:20:40  +  00:01:07=46,452 
14 FRARaymond PoulidorFRAGan-Mercier-Hutchinson00:20:40  +  00:01:07=46,452 
15 NEDGerben KarstensFRAGitane-Campagnolo00:20:43  +  00:01:10=46,340 
16 FRAHubert MathisBELMiko-De Gribaldy00:20:43  +  00:01:10=46,340 
17 PORJoaquim AgostinhoPRTSporting-Sottomayor00:20:46  +  00:01:13=46,228 
18 NEDFedor Iwan Den HertogNLDFrisol-G.B.C.00:20:47  +  00:01:14=46,191 
19 ITAFelice GimondiITABianchi-Campagnolo00:20:47  +  00:01:14=46,191 
20 BELEduard JanssensITAMolteni00:20:48  +  00:01:15=46,154 
21 ITASimone FraccaroITABianchi-Campagnolo00:20:48  +  00:01:15=46,154 
22 NEDGerard KamperNLDFrisol-G.B.C.00:20:48  +  00:01:15=46,154 
23 ESPJosé-Luis ViejoESPSuper Ser00:20:49  +  00:01:16=46,117 
24 BELHerman Van SpringelBELCarpenter Confortluxe-Flandria00:20:49  +  00:01:16=46,117 
25 BELLucien Van ImpeFRAGitane-Campagnolo00:20:49  +  00:01:16=46,117 
26 BELTony HoubrechtsITABianchi-Campagnolo00:20:51  +  00:01:18=46,043 
27 FRARégis OvionFRAPeugeot-BP-Michelin00:20:53  +  00:01:20=45,970 
28 BELKarel RottiersITAMolteni00:20:57  +  00:01:24=45,823 
29 FRAJean-Claude MisacFRAGan-Mercier-Hutchinson00:20:58  +  00:01:25=45,787 
30 BELRonald De WitteBELCarpenter Confortluxe-Flandria00:20:59  +  00:01:26=45,751 
31 BELRoger RosiersESPSuper Ser00:20:59  +  00:01:26=45,751 
32 BELMarc DemeyerBELCarpenter Confortluxe-Flandria00:21:00  +  00:01:27=45,714 
33 NEDJoop ZoetemelkFRAGan-Mercier-Hutchinson00:21:04  +  00:01:31=45,570 
34 BELWilfried WesemaelBELMiko-De Gribaldy00:21:04  +  00:01:31=45,570 
35 PORFirmino BernardinoPRTSporting-Sottomayor00:21:04  +  00:01:31=45,570 
36 BELJoseph SpruytITAMolteni00:21:05  +  00:01:32=45,534 
37 ITAGiovanni BattaglinITAJollyceramica00:21:06  +  00:01:33=45,498 
38 FRAJean-Pierre GenetFRAGan-Mercier-Hutchinson00:21:07  +  00:01:34=45,462 
39 FRAFrancis CampanerPRTSporting-Sottomayor00:21:07  +  00:01:34=45,462 
40 ITAMauro SimonettiITAFilotex00:21:08  +  00:01:35=45,426 
41 FRARaymond DelisleFRAPeugeot-BP-Michelin00:21:09  +  00:01:36=45,390 
42 ESPFrancisco GaldosESPKas-Kaskol00:21:11  +  00:01:38=45,319 
43 SUIJosef FuchsITAFilotex00:21:12  +  00:01:39=45,283 
44 ESPJosé PesarrodonaESPKas-Kaskol00:21:12  +  00:01:39=45,283 
45 COLMartìn RodríguezITABianchi-Campagnolo00:21:14  +  00:01:41=45,212 
46 NEDGerard VianenFRAGan-Mercier-Hutchinson00:21:17  +  00:01:44=45,106 
47 FRACharly RouxelFRAPeugeot-BP-Michelin00:21:18  +  00:01:45=45,070 
48 FRAPatrick PerretBELMiko-De Gribaldy00:21:18  +  00:01:45=45,070 
49 ESPPedro TorresESPSuper Ser00:21:19  +  00:01:46=45,035 
50 BELFrans MintjensITAMolteni00:21:19  +  00:01:46=45,035 
51 ESPCarlos MeleroESPKas-Kaskol00:21:20  +  00:01:47=45,000 
52 ESPAntonio MenendezESPKas-Kaskol00:21:22  +  00:01:49=44,930 
53 FRAJoël MillardFRAJobo-Wolber00:21:23  +  00:01:50=44,895 
54 ITAGiovanni CavalcantiITABianchi-Campagnolo00:21:24  +  00:01:51=44,860 
55 ESPMariano MartinezFRAGitane-Campagnolo00:21:24  +  00:01:51=44,860 
56 BELLudo DelcroixITAMolteni00:21:24  +  00:01:51=44,860 
57 ESPSantiago LazcanoESPSuper Ser00:21:25  +  00:01:52=44,825 
58 BELWilfried DavidBELCarpenter Confortluxe-Flandria00:21:25  +  00:01:52=44,825 
59 MARAntoine GutierrezBELMiko-De Gribaldy00:21:25  +  00:01:52=44,825 
60 ITARoberto SorliniITAFilotex00:21:26  +  00:01:53=44,790 
61 ESPVicente LopezESPKas-Kaskol00:21:26  +  00:01:53=44,790 
62 BELMarc LievensITAMolteni00:21:26  +  00:01:53=44,790 
63 FRAGuy SibilleFRAPeugeot-BP-Michelin00:21:27  +  00:01:54=44,755 
64 ITAGiacomo BazzanITAJollyceramica00:21:27  +  00:01:54=44,755 
65 BELRik Van LindenITABianchi-Campagnolo00:21:28  +  00:01:55=44,720 
66 BELWalter GodefrootBELCarpenter Confortluxe-Flandria00:21:29  +  00:01:56=44,686 
67 FRAGeorges TalbourdetFRAGan-Mercier-Hutchinson00:21:30  +  00:01:57=44,651 
68 BELRoger LoyschBELMiko-De Gribaldy00:21:32  +  00:01:59=44,582 
69 FRAPatrick BeonFRAPeugeot-BP-Michelin00:21:34  +  00:02:01=44,513 
70 FRAAlain SantyFRAGitane-Campagnolo00:21:35  +  00:02:02=44,479 
71 ITAGiacinto SantambrogioITABianchi-Campagnolo00:21:35  +  00:02:02=44,479 
72 ITARoberto PoggialiITAFilotex00:21:35  +  00:02:02=44,479 
73 FRASylvain VasseurESPSuper Ser00:21:36  +  00:02:03=44,444 
74 BELWilly TeirlinckFRAGitane-Campagnolo00:21:37  +  00:02:04=44,410 
75 ITADonato GiulianiITAJollyceramica00:21:38  +  00:02:05=44,376 
76 PORJosé AmaroPRTSporting-Sottomayor00:21:40  +  00:02:07=44,308 
77 PORJoaquim CarvalhoPRTSporting-Sottomayor00:21:40  +  00:02:07=44,308 
78 FRASerge ParsaniITABianchi-Campagnolo00:21:41  +  00:02:08=44,274 
79 FRAJosé CatieauFRAPeugeot-BP-Michelin00:21:41  +  00:02:08=44,274 
80 ESPJosé CasasESPSuper Ser00:21:42  +  00:02:09=44,240 
81 FRABernard LabourdettePRTSporting-Sottomayor00:21:44  +  00:02:11=44,172 
82 ESPJuan ZuranoESPKas-Kaskol00:21:44  +  00:02:11=44,172 
83 FRAGerard MoneyronBELCarpenter Confortluxe-Flandria00:21:45  +  00:02:12=44,138 
84 FRAClaude MagniFRAJobo-Wolber00:21:45  +  00:02:12=44,138 
85 COLAntonio MartosESPKas-Kaskol00:21:46  +  00:02:13=44,104 
86 FRAAndré MolletPRTSporting-Sottomayor00:21:46  +  00:02:13=44,104 
87 BELAndre DoyenBELMiko-De Gribaldy00:21:47  +  00:02:14=44,070 
88 FRARichard PianaroFRAJobo-Wolber00:21:47  +  00:02:14=44,070 
89 AUSDonald AllanNLDFrisol-G.B.C.00:21:48  +  00:02:15=44,037 
90 ITAAlessio AntoniniITAJollyceramica00:21:49  +  00:02:16=44,003 
91 FRAMichel PerinFRAGan-Mercier-Hutchinson00:21:51  +  00:02:18=43,936 
92 BELHerman BeysensITAMolteni00:21:51  +  00:02:18=43,936 
93 BELDaniel VerplanckeBELCarpenter Confortluxe-Flandria00:21:52  +  00:02:19=43,902 
94 NEDTheo SmitNLDFrisol-G.B.C.00:21:52  +  00:02:19=43,902 
95 BELJos De SchoenmaeckerITAMolteni00:21:52  +  00:02:19=43,902 
96 ITAPierino GavazziITAJollyceramica00:21:53  +  00:02:20=43,869 
97 FRAJacques BoulasFRAJobo-Wolber00:21:53  +  00:02:20=43,869 
98 FRARobert MintkiewiczFRAGitane-Campagnolo00:21:54  +  00:02:21=43,836 
99 ITARenato MarchettiITAFilotex00:21:55  +  00:02:22=43,802 
100 PORFernando FerreiraPRTSporting-Sottomayor00:21:56  +  00:02:23=43,769 
101 FRAFerdinand JulienPRTSporting-Sottomayor00:21:56  +  00:02:23=43,769 
102 FRAAndré CorbeauFRAJobo-Wolber00:21:57  +  00:02:24=43,736 
103 ITASigfrido FontanelliITAFilotex00:21:57  +  00:02:24=43,736 
104 FRAJoel HauvieuxFRAJobo-Wolber00:21:58  +  00:02:25=43,703 
105 BELJoseph HuysmansITAMolteni00:21:59  +  00:02:26=43,669 
106 FRARaymond MartinFRAGitane-Campagnolo00:21:59  +  00:02:26=43,669 
107 ESPLuis BalagueESPSuper Ser00:22:00  +  00:02:27=43,636 
108 ITALuigi CastellettiITABianchi-Campagnolo00:22:00  +  00:02:27=43,636 
109 ITAFabrizio FabbriITABianchi-Campagnolo00:22:00  +  00:02:27=43,636 
110 FRAGuy LeleuFRAGitane-Campagnolo00:22:00  +  00:02:27=43,636 
111 NEDBen KokenNLDFrisol-G.B.C.00:22:02  +  00:02:29=43,570 
112 BELJosé De CauwerNLDFrisol-G.B.C.00:22:02  +  00:02:29=43,570 
113 BELRené DillenFRAGitane-Campagnolo00:22:02  +  00:02:29=43,570 
114 ESPJulian AndianoESPSuper Ser00:22:03  +  00:02:30=43,537 
115 ITAArnaldo CaverzasiITAFilotex00:22:04  +  00:02:31=43,505 
116 ESPGonzalo AjaESPKas-Kaskol00:22:05  +  00:02:32=43,472 
117 FRARoger LegeayFRAJobo-Wolber00:22:05  +  00:02:32=43,472 
118 ESPAndré RomeroFRAJobo-Wolber00:22:06  +  00:02:33=43,439 
119 ITAGiovanni Dalla BonaITAJollyceramica00:22:07  +  00:02:34=43,406 
120 ESPJosé GrandeESPKas-Kaskol00:22:07  +  00:02:34=43,406 
121 FRAMaurice Le GuillouxFRAGitane-Campagnolo00:22:11  +  00:02:38=43,276 
122 BELEddy PeelmanESPSuper Ser00:22:12  +  00:02:39=43,243 
123 FRAJacques EsclassanFRAPeugeot-BP-Michelin00:22:13  +  00:02:40=43,211 
124 FRABernard BourreauFRAPeugeot-BP-Michelin00:22:14  +  00:02:41=43,178 
125 BELFrans Van VlierbergheBELMiko-De Gribaldy00:22:14  +  00:02:41=43,178 
126 NEDHenk PrinsenNLDFrisol-G.B.C.00:22:19  +  00:02:46=43,017 
127 FRAAlain CiganaFRAJobo-Wolber00:22:20  +  00:02:47=42,985 
128 FRARegis DelepineBELCarpenter Confortluxe-Flandria00:22:20  +  00:02:47=42,985 
129 ITAPietro DallaiITAFilotex00:22:20  +  00:02:47=42,985 
130 ITASandro QuintarelliITAJollyceramica00:22:21  +  00:02:48=42,953 
131 BELAlbert Van VlierbergheBELMiko-De Gribaldy00:22:40  +  00:03:07=42,353 
132 FRAMichel LaurentBELMiko-De Gribaldy00:22:47  +  00:03:14=42,136 
133 ITABruno VicinoITAJollyceramica00:22:49  +  00:03:16=42,075 
134 BELLucien De BrauwereBELMiko-De Gribaldy00:22:52  +  00:03:19=41,983 


Todays birthdays.

1895  François Colomines
1901  Victor Pellier
1921  Maurice Carpentier
1921  Hans Hutmacher
1924  Norbert Callens
1928  Armand Baeyens
1933  Adriano Zamboni
1944  Ercole Gualazzini
1952  Jose Lopez
1956  Alfons De Wolf
1958  Sergio Jaramillo
1961  José Vieira
1963  Luigi Furlan
1972  Dariusz Baranowski
1973  Cyril Saugrain
1975  Andréas Klöden
1977  Angelo Furlan
1979  Thomas Voeckler
1983  Jérémy Roy




Visits: